Location: Casone le Fosse
(44.6547°N, 12.1103°E)
Time: 11:15:09
(UTC+00:00)

Cosmos 1709 Rocket - Pass Details

Date: 29 October 2020
Orbit: 949 x 1001 km, 82.9° (Epoch: 27 November)

Event Time Altitude Azimuth Distance (km) Brightness Sun altitude
Rises 18:37:22 0° 348° (NNW) 3,730 7.3 -27.7°
Reaches altitude 10° 18:39:55 10° 345° (NNW) 2,779 6.6 -28.2°
Maximum altitude 18:46:11 60° 267° (W) 1,135 4.5 -29.3°
Drops below altitude 10° 18:52:25 10° 189° (S) 2,760 6.3 -30.4°
Sets 18:54:57 0° 186° (S) 3,702 7.0 -30.8°
